Hourly Weather Bolshie Lomy

Today, 19 June, Saturday

Time Temperature Precipitation Wind Pressure Humidity
00:00 +15°C° 0 mm 2 mps 750 mmHg 89%
01:00 +15°C° 0 mm 2 mps 750 mmHg 91%
02:00 +15°C° 0 mm 2 mps 750 mmHg 93%
03:00 +15°C° 0 mm 2 mps 750 mmHg 91%
04:00 +16°C° 0 mm 2 mps 750 mmHg 90%
05:00 +16°C° 0 mm 2 mps 750 mmHg 88%
06:00 +18°C° 0 mm 2 mps 750 mmHg 81%
07:00 +20°C° 0 mm 2 mps 750 mmHg 74%
08:00 +23°C° 0 mm 2 mps 750 mmHg 67%
09:00 +24°C° 0 mm 2 mps 750 mmHg 61%
10:00 +25°C° 0 mm 2 mps 750 mmHg 56%
11:00 +26°C° 0 mm 2 mps 750 mmHg 50%
12:00 +27°C° 0 mm 2 mps 749 mmHg 49%
13:00 +27°C° 0 mm 2 mps 749 mmHg 48%
14:00 +28°C° 0 mm 2 mps 749 mmHg 46%
15:00 +28°C° 0 mm 2 mps 749 mmHg 50%
16:00 +27°C° 0 mm 2 mps 748 mmHg 54%
17:00 +27°C° 0 mm 2 mps 748 mmHg 58%
18:00 +25°C° 0 mm 2 mps 748 mmHg 65%
19:00 +23°C° 0 mm 2 mps 748 mmHg 72%
20:00 +20°C° 0 mm 2 mps 748 mmHg 79%
21:00 +19°C° 0 mm 2 mps 748 mmHg 83%
22:00 +18°C° 0 mm 2 mps 748 mmHg 86%
23:00 +17°C° 0 mm 2 mps 748 mmHg 89%

Tomorrow, 20 June, Sunday

Time Temperature Precipitation Wind Pressure Humidity
00:00 +17°C° 0 mm 2 mps 748 mmHg 91%
01:00 +17°C° 0 mm 2 mps 748 mmHg 92%
02:00 +16°C° 0 mm 2 mps 748 mmHg 94%
03:00 +17°C° 0 mm 2 mps 748 mmHg 93%
04:00 +19°C° 0 mm 1 mps 748 mmHg 93%
05:00 +19°C° 0 mm 1 mps 748 mmHg 92%
06:00 +21°C° 0 mm 1 mps 748 mmHg 86%
07:00 +23°C° 0 mm 2 mps 748 mmHg 79%
08:00 +25°C° 0 mm 2 mps 748 mmHg 72%
09:00 +26°C° 0 mm 2 mps 748 mmHg 68%
10:00 +27°C° 0 mm 2 mps 748 mmHg 63%
11:00 +28°C° 0 mm 2 mps 748 mmHg 58%
12:00 +28°C° 0 mm 2 mps 748 mmHg 55%
13:00 +29°C° 0 mm 2 mps 747 mmHg 53%
14:00 +30°C° 0 mm 1 mps 747 mmHg 50%
15:00 +29°C° 0 mm 2 mps 747 mmHg 53%
16:00 +29°C° 0 mm 2 mps 747 mmHg 56%
17:00 +29°C° 0 mm 2 mps 746 mmHg 58%
18:00 +27°C° 0 mm 2 mps 746 mmHg 65%
19:00 +25°C° 0 mm 2 mps 746 mmHg 72%
20:00 +21°C° 0 mm 2 mps 746 mmHg 79%
21:00 +20°C° 0 mm 2 mps 746 mmHg 80%
22:00 +19°C° 0 mm 2 mps 746 mmHg 82%
23:00 +18°C° 0 mm 2 mps 746 mmHg 83%

Day after tomorrow, 21 June, Monday

Time Temperature Precipitation Wind Pressure Humidity
00:00 +18°C° 0 mm 2 mps 746 mmHg 85%
01:00 +18°C° 0 mm 2 mps 746 mmHg 88%
02:00 +17°C° 0 mm 2 mps 746 mmHg 90%
03:00 +18°C° 0 mm 2 mps 746 mmHg 89%
04:00 +18°C° 0 mm 2 mps 746 mmHg 88%
05:00 +20°C° 0 mm 1 mps 746 mmHg 88%
06:00 +20°C° 0 mm 2 mps 746 mmHg 82%
07:00 +21°C° 0 mm 2 mps 746 mmHg 76%
08:00 +24°C° 0 mm 2 mps 747 mmHg 70%
09:00 +25°C° 0 mm 3 mps 746 mmHg 64%
10:00 +26°C° 0 mm 3 mps 746 mmHg 58%
11:00 +28°C° 0 mm 3 mps 746 mmHg 52%
12:00 +29°C° 0 mm 3 mps 746 mmHg 50%
13:00 +29°C° 0 mm 3 mps 746 mmHg 47%
14:00 +30°C° 0 mm 3 mps 746 mmHg 45%
15:00 +30°C° 0 mm 3 mps 745 mmHg 50%
16:00 +29°C° 0 mm 3 mps 745 mmHg 54%
17:00 +29°C° 0 mm 3 mps 745 mmHg 59%
18:00 +27°C° 0 mm 3 mps 745 mmHg 67%
19:00 +25°C° 0 mm 2 mps 745 mmHg 75%
20:00 +23°C° 0 mm 2 mps 745 mmHg 83%
21:00 +23°C° 0 mm 2 mps 745 mmHg 87%
22:00 +21°C° 0 mm 2 mps 745 mmHg 90%
23:00 +20°C° 0 mm 2 mps 745 mmHg 93%

22 June, Tuesday

Time Temperature Precipitation Wind Pressure Humidity
00:00 +20°C° 0 mm 2 mps 745 mmHg 94%
01:00 +20°C° 0 mm 2 mps 746 mmHg 95%
02:00 +20°C° 0 mm 2 mps 746 mmHg 95%
03:00 +20°C° 0 mm 2 mps 746 mmHg 94%
04:00 +20°C° 0 mm 2 mps 746 mmHg 93%
05:00 +21°C° 0 mm 2 mps 746 mmHg 92%
06:00 +23°C° 0 mm 2 mps 746 mmHg 83%
07:00 +25°C° 0 mm 3 mps 746 mmHg 75%
08:00 +27°C° 0 mm 3 mps 746 mmHg 66%
09:00 +28°C° 0 mm 4 mps 746 mmHg 60%
10:00 +29°C° 0 mm 4 mps 746 mmHg 54%
11:00 +32°C° 0 mm 4 mps 746 mmHg 48%
12:00 +32°C° 0 mm 4 mps 746 mmHg 47%
13:00 +33°C° 0 mm 4 mps 746 mmHg 46%
14:00 +33°C° 0 mm 4 mps 745 mmHg 45%
15:00 +33°C° 0 mm 4 mps 745 mmHg 49%
16:00 +32°C° 0 mm 4 mps 745 mmHg 54%
17:00 +30°C° 0 mm 4 mps 745 mmHg 58%
18:00 +28°C° 0 mm 3 mps 745 mmHg 66%
19:00 +27°C° 0 mm 3 mps 745 mmHg 75%
20:00 +25°C° 0 mm 3 mps 745 mmHg 83%
21:00 +24°C° 0 mm 3 mps 745 mmHg 87%
22:00 +22°C° 0 mm 3 mps 745 mmHg 91%
23:00 +21°C° 0 mm 3 mps 746 mmHg 95%

23 June, Wednesday

Time Temperature Precipitation Wind Pressure Humidity
00:00 +21°C° 0 mm 2 mps 746 mmHg 95%
01:00 +21°C° 0 mm 2 mps 746 mmHg 96%
02:00 +21°C° 0 mm 2 mps 746 mmHg 96%
03:00 +21°C° 0 mm 2 mps 746 mmHg 95%
04:00 +21°C° 0 mm 2 mps 746 mmHg 94%
05:00 +23°C° 0 mm 2 mps 746 mmHg 93%
06:00 +24°C° 0 mm 2 mps 746 mmHg 85%
07:00 +26°C° 0 mm 2 mps 746 mmHg 78%
08:00 +28°C° 0 mm 3 mps 747 mmHg 70%
09:00 +29°C° 0 mm 3 mps 747 mmHg 64%
10:00 +30°C° 0 mm 3 mps 746 mmHg 57%
11:00 +33°C° 0 mm 3 mps 746 mmHg 51%
12:00 +33°C° 0 mm 3 mps 746 mmHg 50%
13:00 +33°C° 0 mm 3 mps 746 mmHg 48%
14:00 +34°C° 0 mm 3 mps 746 mmHg 47%
15:00 +33°C° 0 mm 3 mps 746 mmHg 50%
16:00 +32°C° 0 mm 2 mps 746 mmHg 53%
17:00 +32°C° 0 mm 2 mps 746 mmHg 56%
18:00 +29°C° 0 mm 2 mps 746 mmHg 63%
19:00 +27°C° 0 mm 3 mps 746 mmHg 70%
20:00 +25°C° 0 mm 3 mps 746 mmHg 77%
21:00 +24°C° 0 mm 3 mps 746 mmHg 80%
22:00 +23°C° 0 mm 2 mps 746 mmHg 83%
23:00 +21°C° 0 mm 2 mps 746 mmHg 86%

24 June, Thursday

Time Temperature Precipitation Wind Pressure Humidity
00:00 +21°C° 0 mm 2 mps 746 mmHg 87%
01:00 +20°C° 0 mm 2 mps 746 mmHg 89%
02:00 +20°C° 0 mm 2 mps 746 mmHg 91%
03:00 +21°C° 0 mm 2 mps 746 mmHg 90%
04:00 +21°C° 0 mm 2 mps 746 mmHg 89%
05:00 +23°C° 0 mm 1 mps 746 mmHg 88%
06:00 +24°C° 0 mm 2 mps 746 mmHg 81%
07:00 +26°C° 0 mm 2 mps 746 mmHg 75%
08:00 +28°C° 0 mm 2 mps 746 mmHg 69%
09:00 +29°C° 0 mm 2 mps 746 mmHg 63%
10:00 +31°C° 0 mm 3 mps 746 mmHg 58%
11:00 +33°C° 0 mm 3 mps 746 mmHg 52%
12:00 +34°C° 0 mm 3 mps 746 mmHg 49%
13:00 +34°C° 0 mm 3 mps 746 mmHg 47%
14:00 +35°C° 0 mm 3 mps 745 mmHg 44%
15:00 +34°C° 0 mm 2 mps 745 mmHg 49%
16:00 +34°C° 0 mm 2 mps 745 mmHg 53%
17:00 +32°C° 0 mm 2 mps 745 mmHg 58%
18:00 +30°C° 0 mm 2 mps 745 mmHg 64%
19:00 +28°C° 0 mm 2 mps 744 mmHg 71%
20:00 +26°C° 0 mm 2 mps 744 mmHg 77%
21:00 +26°C° 0 mm 2 mps 744 mmHg 80%
22:00 +25°C° 0 mm 2 mps 744 mmHg 82%
23:00 +24°C° 0 mm 2 mps 744 mmHg 85%
Show more